Time,TemperatureF,DewpointF,PressureIn,WindDirection,WindDirectionDegrees,WindSpeedMPH,WindSpeedGustMPH,Humidity,HourlyPrecipIn,Conditions,Clouds,dailyrainin,SoftwareType,DateUTC
2013-04-21 00:02:00,55.6,39.2,30.17,SE,135,3.0,4.0,54,0.00,,,0.00,meteohub,2013-04-21 05:02:00,
2013-04-21 00:07:00,55.6,39.2,30.17,SE,135,5.0,5.0,54,0.00,,,0.00,meteohub,2013-04-21 05:07:00,
2013-04-21 00:12:00,55.6,39.2,30.17,SE,135,2.0,5.0,54,0.00,,,0.00,meteohub,2013-04-21 05:12:00,
2013-04-21 00:17:00,55.6,39.2,30.17,ESE,113,5.0,5.0,54,0.00,,,0.00,meteohub,2013-04-21 05:17:00,
2013-04-21 00:22:00,55.4,39.0,30.15,ESE,113,2.0,5.0,54,0.00,,,0.00,meteohub,2013-04-21 05:22:00,
2013-04-21 00:27:00,55.4,39.6,30.15,ESE,113,4.0,5.0,55,0.00,,,0.00,meteohub,2013-04-21 05:27:00,
2013-04-21 00:32:00,55.6,39.7,30.15,SE,135,3.0,5.0,55,0.00,,,0.00,meteohub,2013-04-21 05:32:00,
2013-04-21 00:37:00,55.6,39.7,30.15,SE,135,2.0,4.0,55,0.00,,,0.00,meteohub,2013-04-21 05:37:00,
2013-04-21 00:42:00,55.2,39.7,30.17,SE,135,5.0,5.0,56,0.00,,,0.00,meteohub,2013-04-21 05:42:00,
2013-04-21 00:47:00,55.2,39.7,30.17,SE,135,2.0,5.0,56,0.00,,,0.00,meteohub,2013-04-21 05:47:00,
2013-04-21 00:52:00,55.0,40.1,30.17,ESE,113,3.0,5.0,57,0.00,,,0.00,meteohub,2013-04-21 05:52:00,
2013-04-21 00:57:00,55.0,40.1,30.17,SE,135,3.0,5.0,57,0.00,,,0.00,meteohub,2013-04-21 05:57:00,
2013-04-21 01:02:00,54.9,39.9,30.17,ESE,113,3.0,5.0,57,0.00,,,0.00,meteohub,2013-04-21 06:02:00,
2013-04-21 01:07:00,54.9,40.3,30.17,ESE,113,3.0,4.0,58,0.00,,,0.00,meteohub,2013-04-21 06:07:00,
2013-04-21 01:12:00,54.9,40.3,30.17,NW,315,1.0,4.0,58,0.00,,,0.00,meteohub,2013-04-21 06:12:00,
2013-04-21 01:17:00,54.9,40.3,30.17,ESE,113,3.0,6.0,58,0.00,,,0.00,meteohub,2013-04-21 06:17:00,
2013-04-21 01:22:00,54.7,40.6,30.17,ESE,113,4.0,6.0,59,0.00,,,0.00,meteohub,2013-04-21 06:22:00,
2013-04-21 01:27:00,54.5,40.5,30.17,ESE,113,5.0,6.0,59,0.00,,,0.00,meteohub,2013-04-21 06:27:00,
2013-04-21 01:32:00,54.5,40.5,30.17,ESE,113,0.0,7.0,59,0.00,,,0.00,meteohub,2013-04-21 06:32:00,
2013-04-21 01:37:00,54.1,40.6,30.17,SE,135,4.0,7.0,60,0.00,,,0.00,meteohub,2013-04-21 06:37:00,
2013-04-21 01:42:00,54.1,40.6,30.17,NW,315,4.0,7.0,60,0.00,,,0.00,meteohub,2013-04-21 06:42:00,
2013-04-21 01:47:00,53.8,40.3,30.17,SE,135,5.0,6.0,60,0.00,,,0.00,meteohub,2013-04-21 06:47:00,
2013-04-21 01:52:00,53.6,40.5,30.17,ESE,113,2.0,6.0,61,0.00,,,0.00,meteohub,2013-04-21 06:52:00,
2013-04-21 01:57:00,53.6,40.5,30.17,ESE,113,2.0,6.0,61,0.00,,,0.00,meteohub,2013-04-21 06:57:00,
2013-04-21 02:02:00,53.4,40.6,30.17,ESE,113,3.0,5.0,62,0.00,,,0.00,meteohub,2013-04-21 07:02:00,
2013-04-21 02:07:00,53.2,40.6,30.17,ESE,113,4.0,4.0,62,0.00,,,0.00,meteohub,2013-04-21 07:07:00,
2013-04-21 02:12:00,53.2,40.6,30.17,ESE,113,4.0,4.0,62,0.00,,,0.00,meteohub,2013-04-21 07:12:00,
2013-04-21 02:17:00,53.1,40.8,30.17,South,180,2.0,4.0,63,0.00,,,0.00,meteohub,2013-04-21 07:17:00,
2013-04-21 02:22:00,53.1,40.8,30.17,SE,135,4.0,4.0,63,0.00,,,0.00,meteohub,2013-04-21 07:22:00,
2013-04-21 02:27:00,52.9,40.6,30.17,ESE,113,2.0,6.0,63,0.00,,,0.00,meteohub,2013-04-21 07:27:00,
2013-04-21 02:32:00,52.7,40.5,30.17,SE,135,4.0,6.0,63,0.00,,,0.00,meteohub,2013-04-21 07:32:00,
2013-04-21 02:37:00,52.7,40.8,30.17,SE,135,4.0,6.0,64,0.00,,,0.00,meteohub,2013-04-21 07:37:00,
2013-04-21 02:42:00,52.5,40.3,30.18,ESE,113,6.0,6.0,63,0.00,,,0.00,meteohub,2013-04-21 07:42:00,
2013-04-21 02:47:00,52.3,40.1,30.18,SE,135,3.0,6.0,63,0.00,,,0.00,meteohub,2013-04-21 07:47:00,
2013-04-21 02:52:00,52.2,40.3,30.18,ESE,113,3.0,6.0,64,0.00,,,0.00,meteohub,2013-04-21 07:52:00,
2013-04-21 02:57:00,52.3,40.5,30.18,SE,135,4.0,6.0,64,0.00,,,0.00,meteohub,2013-04-21 07:57:00,
2013-04-21 03:02:00,52.2,40.3,30.18,ESE,113,3.0,4.0,64,0.00,,,0.00,meteohub,2013-04-21 08:02:00,
2013-04-21 03:07:00,52.2,40.3,30.18,NE,45,5.0,5.0,64,0.00,,,0.00,meteohub,2013-04-21 08:07:00,
2013-04-21 03:12:00,52.3,40.5,30.18,SE,135,6.0,6.0,64,0.00,,,0.00,meteohub,2013-04-21 08:12:00,
2013-04-21 03:17:00,52.2,40.3,30.18,SE,135,2.0,6.0,64,0.00,,,0.00,meteohub,2013-04-21 08:17:00,
2013-04-21 03:22:00,52.0,40.1,30.18,SE,135,3.0,6.0,64,0.00,,,0.00,meteohub,2013-04-21 08:22:00,
2013-04-21 03:27:00,52.0,40.6,30.18,ESE,113,3.0,6.0,65,0.00,,,0.00,meteohub,2013-04-21 08:27:00,
2013-04-21 03:32:00,51.6,40.3,30.19,SE,135,2.0,3.0,65,0.00,,,0.00,meteohub,2013-04-21 08:32:00,
2013-04-21 03:37:00,51.6,40.3,30.19,SE,135,2.0,5.0,65,0.00,,,0.00,meteohub,2013-04-21 08:37:00,
2013-04-21 03:42:00,51.6,40.6,30.19,SE,135,4.0,5.0,66,0.00,,,0.00,meteohub,2013-04-21 08:42:00,
2013-04-21 03:47:00,51.4,40.5,30.19,SSE,158,3.0,5.0,66,0.00,,,0.00,meteohub,2013-04-21 08:47:00,
2013-04-21 03:52:00,51.3,40.3,30.19,ESE,113,3.0,4.0,66,0.00,,,0.00,meteohub,2013-04-21 08:52:00,
2013-04-21 03:57:00,51.3,40.3,30.19,WSW,248,0.0,6.0,66,0.00,,,0.00,meteohub,2013-04-21 08:57:00,
2013-04-21 04:02:00,51.3,40.3,30.19,SE,135,0.0,6.0,66,0.00,,,0.00,meteohub,2013-04-21 09:02:00,
2013-04-21 04:07:00,50.9,39.9,30.19,ESE,113,2.0,5.0,66,0.00,,,0.00,meteohub,2013-04-21 09:07:00,
2013-04-21 04:12:00,50.9,40.3,30.19,SE,135,5.0,5.0,67,0.00,,,0.00,meteohub,2013-04-21 09:12:00,
2013-04-21 04:17:00,50.7,40.1,30.20,SE,135,4.0,5.0,67,0.00,,,0.00,meteohub,2013-04-21 09:17:00,
2013-04-21 04:22:00,50.9,40.3,30.19,ESE,113,2.0,6.0,67,0.00,,,0.00,meteohub,2013-04-21 09:22:00,
2013-04-21 04:27:00,50.7,40.5,30.20,SE,135,4.0,6.0,68,0.00,,,0.00,meteohub,2013-04-21 09:27:00,
2013-04-21 04:32:00,50.5,40.5,30.20,SE,135,3.0,5.0,68,0.00,,,0.00,meteohub,2013-04-21 09:32:00,
2013-04-21 04:37:00,50.5,40.5,30.20,SE,135,4.0,4.0,68,0.00,,,0.00,meteohub,2013-04-21 09:37:00,
2013-04-21 04:42:00,50.5,40.5,30.21,SE,135,2.0,4.0,68,0.00,,,0.00,meteohub,2013-04-21 09:42:00,
2013-04-21 04:47:00,50.5,40.8,30.21,East,90,4.0,4.0,69,0.00,,,0.00,meteohub,2013-04-21 09:47:00,
2013-04-21 04:52:00,50.5,40.8,30.21,SE,135,4.0,4.0,69,0.00,,,0.00,meteohub,2013-04-21 09:52:00,
2013-04-21 04:57:00,50.5,40.8,30.21,SE,135,3.0,4.0,69,0.00,,,0.00,meteohub,2013-04-21 09:57:00,
2013-04-21 05:02:00,50.5,40.8,30.21,ESE,113,2.0,4.0,69,0.00,,,0.00,meteohub,2013-04-21 10:02:00,
2013-04-21 05:07:00,50.5,40.8,30.21,SE,135,2.0,5.0,69,0.00,,,0.00,meteohub,2013-04-21 10:07:00,
2013-04-21 05:12:00,50.5,40.8,30.21,SE,135,2.0,5.0,69,0.00,,,0.00,meteohub,2013-04-21 10:12:00,
2013-04-21 05:17:00,50.4,40.6,30.21,SSE,158,2.0,4.0,69,0.00,,,0.00,meteohub,2013-04-21 10:17:00,
2013-04-21 05:22:00,50.2,40.5,30.21,SSE,158,3.0,4.0,69,0.00,,,0.00,meteohub,2013-04-21 10:22:00,
2013-04-21 05:27:00,50.2,40.8,30.21,SSE,158,3.0,4.0,70,0.00,,,0.00,meteohub,2013-04-21 10:27:00,
2013-04-21 05:32:00,50.2,40.8,30.21,ESE,113,6.0,6.0,70,0.00,,,0.00,meteohub,2013-04-21 10:32:00,
2013-04-21 05:37:00,50.2,40.8,30.21,East,90,3.0,6.0,70,0.00,,,0.00,meteohub,2013-04-21 10:37:00,
2013-04-21 05:42:00,50.0,40.6,30.22,SSE,158,2.0,8.0,70,0.00,,,0.00,meteohub,2013-04-21 10:42:00,
2013-04-21 05:47:00,50.0,41.0,30.22,ESE,113,5.0,8.0,71,0.00,,,0.00,meteohub,2013-04-21 10:47:00,
2013-04-21 05:52:00,50.0,41.0,30.22,SE,135,4.0,5.0,71,0.00,,,0.00,meteohub,2013-04-21 10:52:00,
2013-04-21 05:57:00,49.8,40.8,30.22,SE,135,5.0,5.0,71,0.00,,,0.00,meteohub,2013-04-21 10:57:00,
2013-04-21 06:02:00,49.6,40.6,30.22,SSE,158,2.0,5.0,71,0.00,,,0.00,meteohub,2013-04-21 11:02:00,
2013-04-21 06:07:00,49.6,40.6,30.22,ESE,113,6.0,8.0,71,0.00,,,0.00,meteohub,2013-04-21 11:07:00,
2013-04-21 06:12:00,49.8,40.8,30.22,SE,135,2.0,8.0,71,0.00,,,0.00,meteohub,2013-04-21 11:12:00,
2013-04-21 06:17:00,49.8,40.8,30.22,SE,135,4.0,8.0,71,0.00,,,0.00,meteohub,2013-04-21 11:17:00,
2013-04-21 06:22:00,49.6,40.6,30.22,SE,135,2.0,6.0,71,0.00,,,0.00,meteohub,2013-04-21 11:22:00,
2013-04-21 06:27:00,49.6,40.6,30.22,SE,135,4.0,6.0,71,0.00,,,0.00,meteohub,2013-04-21 11:27:00,
2013-04-21 06:32:00,49.8,40.8,30.22,SE,135,3.0,6.0,71,0.00,,,0.00,meteohub,2013-04-21 11:32:00,
2013-04-21 06:37:00,49.8,40.5,30.22,ESE,113,6.0,6.0,70,0.00,,,0.00,meteohub,2013-04-21 11:37:00,
2013-04-21 06:42:00,50.0,40.6,30.23,SE,135,4.0,6.0,70,0.00,,,0.00,meteohub,2013-04-21 11:42:00,
2013-04-21 06:47:00,49.8,40.5,30.23,SE,135,2.0,6.0,70,0.00,,,0.00,meteohub,2013-04-21 11:47:00,
2013-04-21 06:51:00,49.8,40.5,30.23,ESE,113,2.0,6.0,70,0.00,,,0.00,meteohub,2013-04-21 11:51:00,
2013-04-21 06:56:00,49.8,40.5,30.23,ESE,113,7.0,7.0,70,0.00,,,0.00,meteohub,2013-04-21 11:56:00,
2013-04-21 07:02:00,50.0,40.3,30.24,SE,135,3.0,7.0,69,0.00,,,0.00,meteohub,2013-04-21 12:02:00,
2013-04-21 07:07:00,50.0,40.3,30.24,SE,135,4.0,7.0,69,0.00,,,0.00,meteohub,2013-04-21 12:07:00,
2013-04-21 07:12:00,50.0,40.3,30.24,ENE,68,2.0,7.0,69,0.00,,,0.00,meteohub,2013-04-21 12:12:00,
2013-04-21 07:17:00,50.0,40.3,30.24,ENE,68,1.0,6.0,69,0.00,,,0.00,meteohub,2013-04-21 12:17:00,
2013-04-21 07:22:00,50.0,40.3,30.25,South,180,0.0,6.0,69,0.00,,,0.00,meteohub,2013-04-21 12:22:00,
2013-04-21 07:27:00,50.0,40.3,30.25,SE,135,2.0,2.0,69,0.00,,,0.00,meteohub,2013-04-21 12:27:00,
2013-04-21 07:32:00,50.2,40.5,30.25,ESE,113,4.0,4.0,69,0.00,,,0.00,meteohub,2013-04-21 12:32:00,
2013-04-21 07:37:00,50.5,40.8,30.25,NNE,23,0.0,5.0,69,0.00,,,0.00,meteohub,2013-04-21 12:37:00,
2013-04-21 07:42:00,50.4,40.6,30.25,ESE,113,2.0,5.0,69,0.00,,,0.00,meteohub,2013-04-21 12:42:00,
2013-04-21 07:47:00,50.5,40.8,30.25,SE,135,2.0,7.0,69,0.00,,,0.00,meteohub,2013-04-21 12:47:00,
2013-04-21 07:52:00,50.7,41.0,30.25,ESE,113,2.0,7.0,69,0.00,,,0.00,meteohub,2013-04-21 12:52:00,
2013-04-21 07:57:00,50.7,40.5,30.25,NNW,338,6.0,6.0,68,0.00,,,0.00,meteohub,2013-04-21 12:57:00,
2013-04-21 08:02:00,51.1,40.8,30.25,SSE,158,0.0,6.0,68,0.00,,,0.00,meteohub,2013-04-21 13:02:00,
2013-04-21 08:07:00,51.1,40.8,30.25,SE,135,4.0,6.0,68,0.00,,,0.00,meteohub,2013-04-21 13:07:00,
2013-04-21 08:12:00,51.4,41.2,30.25,ESE,113,5.0,6.0,68,0.00,,,0.00,meteohub,2013-04-21 13:12:00,
2013-04-21 08:17:00,51.6,41.0,30.25,SE,135,2.0,7.0,67,0.00,,,0.00,meteohub,2013-04-21 13:17:00,
2013-04-21 08:22:00,52.0,41.4,30.25,ESE,113,3.0,7.0,67,0.00,,,0.00,meteohub,2013-04-21 13:22:00,
2013-04-21 08:27:00,52.2,41.5,30.25,SE,135,4.0,7.0,67,0.00,,,0.00,meteohub,2013-04-21 13:27:00,
2013-04-21 08:32:00,52.2,41.2,30.25,ESE,113,4.0,4.0,66,0.00,,,0.00,meteohub,2013-04-21 13:32:00,
2013-04-21 08:37:00,52.3,41.4,30.25,SSE,158,6.0,7.0,66,0.00,,,0.00,meteohub,2013-04-21 13:37:00,
2013-04-21 08:42:00,52.7,41.2,30.25,SSE,158,3.0,7.0,65,0.00,,,0.00,meteohub,2013-04-21 13:42:00,
2013-04-21 08:47:00,52.9,41.4,30.24,SE,135,5.0,7.0,65,0.00,,,0.00,meteohub,2013-04-21 13:47:00,
2013-04-21 08:52:00,53.4,41.9,30.24,SSE,158,2.0,6.0,65,0.00,,,0.00,meteohub,2013-04-21 13:52:00,
2013-04-21 08:57:00,53.6,41.7,30.24,SE,135,5.0,5.0,64,0.00,,,0.00,meteohub,2013-04-21 13:57:00,
2013-04-21 09:02:00,53.6,41.7,30.26,ESE,113,4.0,6.0,64,0.00,,,0.00,meteohub,2013-04-21 14:02:00,
2013-04-21 09:07:00,53.8,41.9,30.26,SE,135,3.0,6.0,64,0.00,,,0.00,meteohub,2013-04-21 14:07:00,
2013-04-21 09:12:00,54.1,42.3,30.25,ESE,113,4.0,6.0,64,0.00,,,0.00,meteohub,2013-04-21 14:12:00,
2013-04-21 09:17:00,54.5,42.6,30.25,SE,135,7.0,7.0,64,0.00,,,0.00,meteohub,2013-04-21 14:17:00,
2013-04-21 09:22:00,54.9,42.4,30.26,ESE,113,3.0,7.0,63,0.00,,,0.00,meteohub,2013-04-21 14:22:00,
2013-04-21 09:27:00,55.9,43.5,30.26,ESE,113,4.0,7.0,63,0.00,,,0.00,meteohub,2013-04-21 14:27:00,
2013-04-21 09:32:00,56.5,43.2,30.26,SSE,158,8.0,8.0,61,0.00,,,0.00,meteohub,2013-04-21 14:32:00,
2013-04-21 09:37:00,57.0,44.1,30.26,ESE,113,7.0,8.0,62,0.00,,,0.00,meteohub,2013-04-21 14:37:00,
2013-04-21 09:42:00,57.4,43.2,30.28,SE,135,1.0,10.0,59,0.00,,,0.00,meteohub,2013-04-21 14:42:00,
2013-04-21 09:47:00,57.7,43.5,30.28,SE,135,9.0,11.0,59,0.00,,,0.00,meteohub,2013-04-21 14:47:00,
2013-04-21 09:52:00,57.7,43.0,30.28,ESE,113,6.0,11.0,58,0.00,,,0.00,meteohub,2013-04-21 14:52:00,
2013-04-21 09:57:00,58.1,43.9,30.28,SE,135,3.0,11.0,59,0.00,,,0.00,meteohub,2013-04-21 14:57:00,
2013-04-21 10:02:00,58.5,43.7,30.28,ESE,113,5.0,9.0,58,0.00,,,0.00,meteohub,2013-04-21 15:02:00,
2013-04-21 10:07:00,58.3,43.5,30.28,SSW,203,3.0,8.0,58,0.00,,,0.00,meteohub,2013-04-21 15:07:00,
2013-04-21 10:12:00,58.1,43.0,30.28,SE,135,3.0,6.0,57,0.00,,,0.00,meteohub,2013-04-21 15:12:00,
2013-04-21 10:17:00,58.3,43.5,30.28,SE,135,3.0,6.0,58,0.00,,,0.00,meteohub,2013-04-21 15:17:00,
2013-04-21 10:22:00,58.3,43.2,30.28,SSE,158,7.0,7.0,57,0.00,,,0.00,meteohub,2013-04-21 15:22:00,
2013-04-21 10:27:00,58.8,43.7,30.28,SE,135,4.0,7.0,57,0.00,,,0.00,meteohub,2013-04-21 15:27:00,
2013-04-21 10:32:00,58.8,43.2,30.28,ESE,113,3.0,10.0,56,0.00,,,0.00,meteohub,2013-04-21 15:32:00,
2013-04-21 10:37:00,59.7,44.4,30.28,SSE,158,3.0,10.0,57,0.00,,,0.00,meteohub,2013-04-21 15:37:00,
2013-04-21 10:42:00,60.3,44.4,30.28,SE,135,4.0,10.0,56,0.00,,,0.00,meteohub,2013-04-21 15:42:00,
2013-04-21 10:47:00,61.2,44.8,30.28,SE,135,4.0,4.0,55,0.00,,,0.00,meteohub,2013-04-21 15:47:00,
2013-04-21 10:52:00,61.7,45.3,30.28,SE,135,5.0,5.0,55,0.00,,,0.00,meteohub,2013-04-21 15:52:00,
2013-04-21 10:57:00,62.1,44.8,30.28,SSE,158,4.0,5.0,53,0.00,,,0.00,meteohub,2013-04-21 15:57:00,
2013-04-21 11:02:00,62.2,44.4,30.28,SE,135,9.0,9.0,52,0.00,,,0.00,meteohub,2013-04-21 16:02:00,
2013-04-21 11:07:00,62.4,44.6,30.27,SE,135,6.0,9.0,52,0.00,,,0.00,meteohub,2013-04-21 16:07:00,
2013-04-21 11:12:00,62.2,43.9,30.28,SSW,203,9.0,9.0,51,0.00,,,0.00,meteohub,2013-04-21 16:12:00,
2013-04-21 11:17:00,62.2,43.9,30.28,SE,135,4.0,9.0,51,0.00,,,0.00,meteohub,2013-04-21 16:17:00,
2013-04-21 11:22:00,62.6,45.1,30.27,SE,135,4.0,9.0,53,0.00,,,0.00,meteohub,2013-04-21 16:22:00,
2013-04-21 11:27:00,63.3,45.9,30.27,SSE,158,3.0,9.0,53,0.00,,,0.00,meteohub,2013-04-21 16:27:00,
2013-04-21 11:32:00,63.5,45.5,30.27,ESE,113,7.0,9.0,52,0.00,,,0.00,meteohub,2013-04-21 16:32:00,
2013-04-21 11:37:00,63.7,45.1,30.27,SSE,158,10.0,10.0,51,0.00,,,0.00,meteohub,2013-04-21 16:37:00,
2013-04-21 11:42:00,64.2,45.7,30.25,SSW,203,4.0,10.0,51,0.00,,,0.00,meteohub,2013-04-21 16:42:00,
2013-04-21 11:47:00,64.4,45.9,30.25,SSW,203,9.0,10.0,51,0.00,,,0.00,meteohub,2013-04-21 16:47:00,
2013-04-21 11:52:00,64.8,45.7,30.25,ESE,113,4.0,10.0,50,0.00,,,0.00,meteohub,2013-04-21 16:52:00,
2013-04-21 11:57:00,65.1,45.0,30.25,SE,135,5.0,9.0,48,0.00,,,0.00,meteohub,2013-04-21 16:57:00,
2013-04-21 12:02:00,65.3,44.6,30.25,ESE,113,4.0,9.0,47,0.00,,,0.00,meteohub,2013-04-21 17:02:00,
2013-04-21 12:07:00,65.1,44.4,30.25,ESE,113,2.0,6.0,47,0.00,,,0.00,meteohub,2013-04-21 17:07:00,
2013-04-21 12:12:00,64.8,44.1,30.25,NW,315,3.0,6.0,47,0.00,,,0.00,meteohub,2013-04-21 17:12:00,
2013-04-21 12:17:00,64.8,44.1,30.25,ESE,113,6.0,6.0,47,0.00,,,0.00,meteohub,2013-04-21 17:17:00,
2013-04-21 12:22:00,65.1,43.9,30.24,South,180,11.0,11.0,46,0.00,,,0.00,meteohub,2013-04-21 17:22:00,
2013-04-21 12:27:00,64.9,43.7,30.24,SSE,158,4.0,11.0,46,0.00,,,0.00,meteohub,2013-04-21 17:27:00,
2013-04-21 12:32:00,65.7,45.0,30.24,NW,315,7.0,11.0,47,0.00,,,0.00,meteohub,2013-04-21 17:32:00,
2013-04-21 12:37:00,65.7,45.0,30.24,East,90,3.0,11.0,47,0.00,,,0.00,meteohub,2013-04-21 17:37:00,
2013-04-21 12:42:00,66.4,46.0,30.22,ESE,113,3.0,11.0,48,0.00,,,0.00,meteohub,2013-04-21 17:42:00,
2013-04-21 12:47:00,66.4,45.0,30.22,ESE,113,3.0,11.0,46,0.00,,,0.00,meteohub,2013-04-21 17:47:00,
2013-04-21 12:52:00,66.2,43.7,30.22,SE,135,8.0,11.0,44,0.00,,,0.00,meteohub,2013-04-21 17:52:00,
2013-04-21 12:57:00,66.0,43.5,30.22,ESE,113,4.0,11.0,44,0.00,,,0.00,meteohub,2013-04-21 17:57:00,
2013-04-21 13:02:00,66.0,44.6,30.22,South,180,10.0,10.0,46,0.00,,,0.00,meteohub,2013-04-21 18:02:00,
2013-04-21 13:07:00,66.2,44.2,30.22,SE,135,8.0,10.0,45,0.00,,,0.00,meteohub,2013-04-21 18:07:00,
2013-04-21 13:12:00,66.4,44.4,30.22,ESE,113,4.0,10.0,45,0.00,,,0.00,meteohub,2013-04-21 18:12:00,
2013-04-21 13:17:00,66.0,43.5,30.22,SSE,158,7.0,13.0,44,0.00,,,0.00,meteohub,2013-04-21 18:17:00,
2013-04-21 13:22:00,66.0,44.1,30.21,SE,135,4.0,13.0,45,0.00,,,0.00,meteohub,2013-04-21 18:22:00,
2013-04-21 13:27:00,66.0,44.6,30.21,SE,135,8.0,13.0,46,0.00,,,0.00,meteohub,2013-04-21 18:27:00,
2013-04-21 13:32:00,66.6,44.1,30.21,SSE,158,4.0,11.0,44,0.00,,,0.00,meteohub,2013-04-21 18:32:00,
2013-04-21 13:38:00,66.7,43.5,30.21,ESE,113,5.0,9.0,43,0.00,,,0.00,meteohub,2013-04-21 18:38:00,
2013-04-21 13:43:00,66.7,44.1,30.20,SSW,203,7.0,8.0,44,0.00,,,0.00,meteohub,2013-04-21 18:43:00,
2013-04-21 13:48:00,66.9,44.2,30.20,SE,135,4.0,5.0,44,0.00,,,0.00,meteohub,2013-04-21 18:48:00,
2013-04-21 13:53:00,67.1,44.4,30.20,SSE,158,3.0,7.0,44,0.00,,,0.00,meteohub,2013-04-21 18:53:00,
2013-04-21 13:58:00,67.1,43.9,30.20,ESE,113,3.0,8.0,43,0.00,,,0.00,meteohub,2013-04-21 18:58:00,
2013-04-21 14:03:00,67.3,44.6,30.19,SSW,203,4.0,8.0,44,0.00,,,0.00,meteohub,2013-04-21 19:03:00,
2013-04-21 14:08:00,67.8,44.4,30.19,SW,225,5.0,6.0,43,0.00,,,0.00,meteohub,2013-04-21 19:08:00,
2013-04-21 14:13:00,67.5,44.2,30.19,ESE,113,5.0,6.0,43,0.00,,,0.00,meteohub,2013-04-21 19:13:00,
2013-04-21 14:18:00,67.8,45.1,30.19,SSE,158,6.0,6.0,44,0.00,,,0.00,meteohub,2013-04-21 19:18:00,
2013-04-21 14:23:00,67.6,43.2,30.19,SSE,158,6.0,6.0,41,0.00,,,0.00,meteohub,2013-04-21 19:23:00,
2013-04-21 14:28:00,67.6,45.0,30.19,SW,225,4.0,6.0,44,0.00,,,0.00,meteohub,2013-04-21 19:28:00,
2013-04-21 14:33:00,68.2,44.8,30.19,SE,135,5.0,9.0,43,0.00,,,0.00,meteohub,2013-04-21 19:33:00,
2013-04-21 14:38:00,68.4,43.7,30.19,SSE,158,4.0,9.0,41,0.00,,,0.00,meteohub,2013-04-21 19:38:00,
2013-04-21 14:43:00,68.5,44.6,30.18,WNW,293,17.0,17.0,42,0.00,,,0.00,meteohub,2013-04-21 19:43:00,
2013-04-21 14:48:00,68.7,44.8,30.18,WSW,248,5.0,9.0,42,0.00,,,0.00,meteohub,2013-04-21 19:48:00,
2013-04-21 14:53:00,68.7,45.3,30.18,SW,225,15.0,17.0,43,0.00,,,0.00,meteohub,2013-04-21 19:53:00,
2013-04-21 14:58:00,68.9,44.2,30.18,SE,135,8.0,17.0,41,0.00,,,0.00,meteohub,2013-04-21 19:58:00,
2013-04-21 15:03:00,68.5,43.9,30.17,SE,135,8.0,15.0,41,0.00,,,0.00,meteohub,2013-04-21 20:03:00,
2013-04-21 15:08:00,68.5,45.1,30.17,South,180,10.0,15.0,43,0.00,,,0.00,meteohub,2013-04-21 20:08:00,
2013-04-21 15:13:00,68.7,44.8,30.17,East,90,5.0,10.0,42,0.00,,,0.00,meteohub,2013-04-21 20:13:00,
2013-04-21 15:18:00,68.4,43.7,30.17,ESE,113,9.0,10.0,41,0.00,,,0.00,meteohub,2013-04-21 20:18:00,
2013-04-21 15:23:00,68.2,43.5,30.16,SSE,158,4.0,10.0,41,0.00,,,0.00,meteohub,2013-04-21 20:23:00,
2013-04-21 15:28:00,68.5,43.9,30.16,SSE,158,3.0,9.0,41,0.00,,,0.00,meteohub,2013-04-21 20:28:00,
2013-04-21 15:33:00,68.5,43.9,30.16,SE,135,9.0,9.0,41,0.00,,,0.00,meteohub,2013-04-21 20:33:00,
2013-04-21 15:38:00,68.5,45.1,30.16,South,180,7.0,7.0,43,0.00,,,0.00,meteohub,2013-04-21 20:38:00,
2013-04-21 15:43:00,68.9,44.2,30.15,ESE,113,8.0,9.0,41,0.00,,,0.00,meteohub,2013-04-21 20:43:00,
2013-04-21 15:48:00,68.2,43.0,30.15,SW,225,4.0,9.0,40,0.00,,,0.00,meteohub,2013-04-21 20:48:00,
2013-04-21 15:53:00,67.5,43.0,30.15,SE,135,2.0,10.0,41,0.00,,,0.00,meteohub,2013-04-21 20:53:00,
2013-04-21 15:58:00,66.7,43.0,30.15,SE,135,2.0,10.0,42,0.00,,,0.00,meteohub,2013-04-21 20:58:00,
2013-04-21 16:03:00,66.4,43.2,30.16,WSW,248,6.0,10.0,43,0.00,,,0.00,meteohub,2013-04-21 21:03:00,
2013-04-21 16:08:00,66.4,43.2,30.16,ESE,113,6.0,6.0,43,0.00,,,0.00,meteohub,2013-04-21 21:08:00,
2013-04-21 16:13:00,66.2,43.7,30.16,NNE,23,5.0,6.0,44,0.00,,,0.00,meteohub,2013-04-21 21:13:00,
2013-04-21 16:18:00,67.1,44.4,30.16,SW,225,6.0,7.0,44,0.00,,,0.00,meteohub,2013-04-21 21:18:00,
2013-04-21 16:23:00,67.5,44.2,30.15,SE,135,4.0,7.0,43,0.00,,,0.00,meteohub,2013-04-21 21:23:00,
2013-04-21 16:28:00,67.8,44.4,30.15,ESE,113,7.0,8.0,43,0.00,,,0.00,meteohub,2013-04-21 21:28:00,
2013-04-21 16:33:00,67.8,43.9,30.15,SE,135,4.0,8.0,42,0.00,,,0.00,meteohub,2013-04-21 21:33:00,
2013-04-21 16:39:00,67.5,43.0,30.15,SW,225,4.0,8.0,41,0.00,,,0.00,meteohub,2013-04-21 21:39:00,
2013-04-21 16:44:00,67.1,43.2,30.14,SSE,158,3.0,7.0,42,0.00,,,0.00,meteohub,2013-04-21 21:44:00,
2013-04-21 16:49:00,66.4,42.6,30.14,ESE,113,6.0,6.0,42,0.00,,,0.00,meteohub,2013-04-21 21:49:00,
2013-04-21 16:54:00,65.8,42.1,30.14,SSE,158,3.0,6.0,42,0.00,,,0.00,meteohub,2013-04-21 21:54:00,
2013-04-21 16:59:00,65.8,42.8,30.14,ESE,113,2.0,6.0,43,0.00,,,0.00,meteohub,2013-04-21 21:59:00,
2013-04-21 17:04:00,65.7,41.9,30.13,ESE,113,5.0,6.0,42,0.00,,,0.00,meteohub,2013-04-21 22:04:00,
2013-04-21 17:09:00,65.5,42.4,30.13,SE,135,3.0,6.0,43,0.00,,,0.00,meteohub,2013-04-21 22:09:00,
2013-04-21 17:14:00,65.7,41.9,30.13,SE,135,5.0,6.0,42,0.00,,,0.00,meteohub,2013-04-21 22:14:00,
2013-04-21 17:19:00,65.5,42.4,30.13,ESE,113,4.0,6.0,43,0.00,,,0.00,meteohub,2013-04-21 22:19:00,
2013-04-21 17:24:00,65.5,42.4,30.14,East,90,2.0,6.0,43,0.00,,,0.00,meteohub,2013-04-21 22:24:00,
2013-04-21 17:29:00,65.7,42.6,30.14,ESE,113,8.0,8.0,43,0.00,,,0.00,meteohub,2013-04-21 22:29:00,
2013-04-21 17:34:00,65.3,41.5,30.14,SE,135,6.0,8.0,42,0.00,,,0.00,meteohub,2013-04-21 22:34:00,
2013-04-21 17:39:00,65.3,41.5,30.14,SE,135,5.0,8.0,42,0.00,,,0.00,meteohub,2013-04-21 22:39:00,
2013-04-21 17:44:00,65.7,41.4,30.14,ENE,68,9.0,9.0,41,0.00,,,0.00,meteohub,2013-04-21 22:44:00,
2013-04-21 17:49:00,65.7,41.4,30.14,SE,135,4.0,6.0,41,0.00,,,0.00,meteohub,2013-04-21 22:49:00,
2013-04-21 17:54:00,65.8,42.8,30.14,SE,135,2.0,10.0,43,0.00,,,0.00,meteohub,2013-04-21 22:54:00,
2013-04-21 17:59:00,66.4,41.9,30.14,ESE,113,5.0,10.0,41,0.00,,,0.00,meteohub,2013-04-21 22:59:00,
2013-04-21 18:04:00,66.4,41.9,30.13,SE,135,7.0,10.0,41,0.00,,,0.00,meteohub,2013-04-21 23:04:00,
2013-04-21 18:09:00,66.2,42.4,30.13,SE,135,2.0,6.0,42,0.00,,,0.00,meteohub,2013-04-21 23:09:00,
2013-04-21 18:14:00,66.4,42.6,30.13,SE,135,3.0,10.0,42,0.00,,,0.00,meteohub,2013-04-21 23:14:00,
2013-04-21 18:19:00,66.4,42.6,30.13,ESE,113,3.0,10.0,42,0.00,,,0.00,meteohub,2013-04-21 23:19:00,
2013-04-21 18:24:00,66.2,42.4,30.10,SE,135,2.0,10.0,42,0.00,,,0.00,meteohub,2013-04-21 23:24:00,
2013-04-21 18:29:00,66.2,41.7,30.10,SSE,158,6.0,7.0,41,0.00,,,0.00,meteohub,2013-04-21 23:29:00,
2013-04-21 18:34:00,66.0,41.7,30.11,ESE,113,5.0,6.0,41,0.00,,,0.00,meteohub,2013-04-21 23:34:00,
2013-04-21 18:39:00,66.0,42.3,30.11,SSE,158,4.0,6.0,42,0.00,,,0.00,meteohub,2013-04-21 23:39:00,
2013-04-21 18:44:00,66.0,42.3,30.09,ESE,113,4.0,6.0,42,0.00,,,0.00,meteohub,2013-04-21 23:44:00,
2013-04-21 18:49:00,66.0,42.3,30.09,ENE,68,5.0,5.0,42,0.00,,,0.00,meteohub,2013-04-21 23:49:00,
2013-04-21 18:54:00,65.8,42.1,30.09,East,90,3.0,5.0,42,0.00,,,0.00,meteohub,2013-04-21 23:54:00,
2013-04-21 18:59:00,65.5,41.2,30.09,SE,135,3.0,5.0,41,0.00,,,0.00,meteohub,2013-04-21 23:59:00,
2013-04-21 19:04:00,65.3,41.5,30.10,ESE,113,2.0,5.0,42,0.00,,,0.00,meteohub,2013-04-22 00:04:00,
2013-04-21 19:09:00,65.1,40.8,30.10,SE,135,6.0,6.0,41,0.00,,,0.00,meteohub,2013-04-22 00:09:00,
2013-04-21 19:14:00,65.1,40.8,30.10,SE,135,6.0,6.0,41,0.00,,,0.00,meteohub,2013-04-22 00:14:00,
2013-04-21 19:19:00,64.9,40.6,30.10,SE,135,4.0,6.0,41,0.00,,,0.00,meteohub,2013-04-22 00:19:00,
2013-04-21 19:24:00,64.6,41.0,30.11,ESE,113,4.0,6.0,42,0.00,,,0.00,meteohub,2013-04-22 00:24:00,
2013-04-21 19:29:00,64.6,41.0,30.11,SE,135,2.0,6.0,42,0.00,,,0.00,meteohub,2013-04-22 00:29:00,
2013-04-21 19:34:00,64.2,40.6,30.11,SE,135,2.0,5.0,42,0.00,,,0.00,meteohub,2013-04-22 00:34:00,
2013-04-21 19:39:00,63.9,40.3,30.11,SSE,158,1.0,4.0,42,0.00,,,0.00,meteohub,2013-04-22 00:39:00,
2013-04-21 19:44:00,63.7,40.1,30.11,SSE,158,0.0,4.0,42,0.00,,,0.00,meteohub,2013-04-22 00:44:00,
2013-04-21 19:49:00,63.3,40.5,30.11,SE,135,2.0,4.0,43,0.00,,,0.00,meteohub,2013-04-22 00:49:00,
2013-04-21 19:54:00,63.1,40.3,30.11,SE,135,5.0,5.0,43,0.00,,,0.00,meteohub,2013-04-22 00:54:00,
2013-04-21 19:59:00,62.8,39.9,30.11,ESE,113,2.0,3.0,43,0.00,,,0.00,meteohub,2013-04-22 00:59:00,
2013-04-21 20:04:00,62.8,39.9,30.11,ESE,113,4.0,5.0,43,0.00,,,0.00,meteohub,2013-04-22 01:04:00,
2013-04-21 20:09:00,62.6,39.7,30.11,ESE,113,3.0,5.0,43,0.00,,,0.00,meteohub,2013-04-22 01:09:00,
2013-04-21 20:14:00,62.4,39.6,30.11,ESE,113,2.0,5.0,43,0.00,,,0.00,meteohub,2013-04-22 01:14:00,
2013-04-21 20:19:00,62.4,39.6,30.11,SE,135,0.0,4.0,43,0.00,,,0.00,meteohub,2013-04-22 01:19:00,
2013-04-21 20:24:00,62.4,40.3,30.13,SE,135,0.0,4.0,44,0.00,,,0.00,meteohub,2013-04-22 01:24:00,
2013-04-21 20:29:00,62.1,39.9,30.13,ESE,113,2.0,4.0,44,0.00,,,0.00,meteohub,2013-04-22 01:29:00,
2013-04-21 20:34:00,62.1,39.9,30.13,ESE,113,0.0,2.0,44,0.00,,,0.00,meteohub,2013-04-22 01:34:00,
2013-04-21 20:39:00,61.9,39.7,30.13,East,90,3.0,3.0,44,0.00,,,0.00,meteohub,2013-04-22 01:39:00,
2013-04-21 20:44:00,61.7,39.6,30.13,SE,135,1.0,3.0,44,0.00,,,0.00,meteohub,2013-04-22 01:44:00,
2013-04-21 20:49:00,61.5,39.9,30.13,ESE,113,2.0,3.0,45,0.00,,,0.00,meteohub,2013-04-22 01:49:00,
2013-04-21 20:54:00,61.2,39.7,30.13,SE,135,1.0,3.0,45,0.00,,,0.00,meteohub,2013-04-22 01:54:00,
2013-04-21 20:59:00,61.0,39.6,30.13,SSE,158,2.0,3.0,45,0.00,,,0.00,meteohub,2013-04-22 01:59:00,
2013-04-21 21:04:00,60.8,39.4,30.14,SE,135,3.0,3.0,45,0.00,,,0.00,meteohub,2013-04-22 02:04:00,
2013-04-21 21:09:00,60.4,39.6,30.14,ESE,113,2.0,3.0,46,0.00,,,0.00,meteohub,2013-04-22 02:09:00,
2013-04-21 21:14:00,60.4,39.6,30.14,SE,135,5.0,5.0,46,0.00,,,0.00,meteohub,2013-04-22 02:14:00,
2013-04-21 21:19:00,60.3,39.4,30.14,ESE,113,3.0,3.0,46,0.00,,,0.00,meteohub,2013-04-22 02:19:00,
2013-04-21 21:24:00,60.1,39.2,30.14,ESE,113,0.0,5.0,46,0.00,,,0.00,meteohub,2013-04-22 02:24:00,
2013-04-21 21:29:00,60.1,39.2,30.14,SE,135,2.0,5.0,46,0.00,,,0.00,meteohub,2013-04-22 02:29:00,
2013-04-21 21:34:00,59.7,38.8,30.14,SE,135,2.0,5.0,46,0.00,,,0.00,meteohub,2013-04-22 02:34:00,
2013-04-21 21:39:00,59.7,39.4,30.14,SE,135,4.0,8.0,47,0.00,,,0.00,meteohub,2013-04-22 02:39:00,
2013-04-21 21:44:00,59.4,39.2,30.14,ENE,68,7.0,8.0,47,0.00,,,0.00,meteohub,2013-04-22 02:44:00,
2013-04-21 21:49:00,59.4,39.2,30.14,SE,135,2.0,8.0,47,0.00,,,0.00,meteohub,2013-04-22 02:49:00,
2013-04-21 21:54:00,59.0,39.4,30.14,ESE,113,6.0,7.0,48,0.00,,,0.00,meteohub,2013-04-22 02:54:00,
2013-04-21 21:59:00,59.2,39.6,30.14,SE,135,2.0,7.0,48,0.00,,,0.00,meteohub,2013-04-22 02:59:00,
2013-04-21 22:04:00,58.8,39.2,30.15,SE,135,4.0,6.0,48,0.00,,,0.00,meteohub,2013-04-22 03:04:00,
2013-04-21 22:09:00,58.8,39.2,30.15,East,90,1.0,6.0,48,0.00,,,0.00,meteohub,2013-04-22 03:09:00,
2013-04-21 22:14:00,58.6,39.6,30.15,ESE,113,5.0,5.0,49,0.00,,,0.00,meteohub,2013-04-22 03:14:00,
2013-04-21 22:19:00,58.5,39.4,30.15,SE,135,2.0,4.0,49,0.00,,,0.00,meteohub,2013-04-22 03:19:00,
2013-04-21 22:24:00,58.3,39.2,30.17,ESE,113,2.0,5.0,49,0.00,,,0.00,meteohub,2013-04-22 03:24:00,
2013-04-21 22:29:00,57.9,38.8,30.17,NNE,23,3.0,5.0,49,0.00,,,0.00,meteohub,2013-04-22 03:29:00,
2013-04-21 22:34:00,57.7,39.2,30.17,SE,135,2.0,5.0,50,0.00,,,0.00,meteohub,2013-04-22 03:34:00,
2013-04-21 22:39:00,57.7,39.2,30.17,SE,135,2.0,4.0,50,0.00,,,0.00,meteohub,2013-04-22 03:39:00,
2013-04-21 22:44:00,57.2,39.2,30.17,ESE,113,2.0,4.0,51,0.00,,,0.00,meteohub,2013-04-22 03:44:00,
2013-04-21 22:49:00,57.0,39.6,30.17,South,180,2.0,4.0,52,0.00,,,0.00,meteohub,2013-04-22 03:49:00,
2013-04-21 22:54:00,57.0,39.6,30.17,SE,135,2.0,2.0,52,0.00,,,0.00,meteohub,2013-04-22 03:54:00,
2013-04-21 22:59:00,56.8,39.4,30.17,ESE,113,4.0,5.0,52,0.00,,,0.00,meteohub,2013-04-22 03:59:00,
2013-04-21 23:01:00,57.0,39.6,30.16,SE,135,5.0,5.0,52,0.00,,,0.00,meteohub,2013-04-22 04:01:00,
2013-04-21 23:02:00,57.0,39.6,30.16,SE,135,5.0,5.0,52,0.00,,,0.00,meteohub,2013-04-22 04:02:00,
2013-04-21 23:07:00,56.7,39.7,30.16,SE,135,4.0,5.0,53,0.00,,,0.00,meteohub,2013-04-22 04:07:00,
2013-04-21 23:12:00,56.5,39.6,30.16,SSE,158,2.0,5.0,53,0.00,,,0.00,meteohub,2013-04-22 04:12:00,
2013-04-21 23:17:00,56.5,39.6,30.16,SSE,158,1.0,5.0,53,0.00,,,0.00,meteohub,2013-04-22 04:17:00,
2013-04-21 23:22:00,56.3,39.4,30.17,ESE,113,4.0,4.0,53,0.00,,,0.00,meteohub,2013-04-22 04:22:00,
2013-04-21 23:27:00,56.3,39.4,30.17,SE,135,2.0,4.0,53,0.00,,,0.00,meteohub,2013-04-22 04:27:00,
2013-04-21 23:32:00,55.9,39.0,30.17,East,90,1.0,4.0,53,0.00,,,0.00,meteohub,2013-04-22 04:32:00,
2013-04-21 23:37:00,55.8,38.8,30.17,SE,135,3.0,5.0,53,0.00,,,0.00,meteohub,2013-04-22 04:37:00,
2013-04-21 23:42:00,55.6,39.2,30.18,SE,135,2.0,5.0,54,0.00,,,0.00,meteohub,2013-04-22 04:42:00,
2013-04-21 23:47:00,55.6,39.2,30.18,ESE,113,0.0,5.0,54,0.00,,,0.00,meteohub,2013-04-22 04:47:00,
2013-04-21 23:52:00,55.2,38.8,30.18,SSE,158,0.0,3.0,54,0.00,,,0.00,meteohub,2013-04-22 04:52:00,
2013-04-21 23:57:00,55.0,38.7,30.18,SE,135,2.0,2.0,54,0.00,,,0.00,meteohub,2013-04-22 04:57:00,